Flag for Germany Weather past 2 weeks in Euskirchen, North Rhine-Westphalia, Germany

37 °F

Rain. Partly cloudy.

Feels Like: 34 °F
Forecast: 39 / 44 °F
Wind: 5 mph from South

Location: Noervenich

Current Time: Nov 25, 2015 at 12:13:42 AM

Latest Report: Nov 24, 2015 at 11:20 PM

Visibility: N/A

Pressure: 29.77 "Hg

Humidity: 87%

Dew point: 34 °F

Location of EuskirchenLocation

Historic Weather in Euskirchen — Graph


Euskirchen temperature yesterday

Maximum temperature yesterday: 39 °F (at 11:20 AM)
Minimum temperature yesterday: 34 °F (at 1:20 AM)
Average temperature yesterday: 36 °F

Past Weeks' High & Low Weather Summary

High63 °F (Nov 17, 9:20 PM)100% (Nov 19, 5:20 PM)30.33 "Hg (Nov 19, 5:20 PM)
Low32 °F (Nov 22, 5:20 PM)48% (Nov 9, 11:20 PM)29.39 "Hg (Nov 21, 12:20 PM)
Average49 °F79%29.99 "Hg
* Reported Nov 9 10:20 PM — Nov 24 10:20 PM, Euskirchen, Weather by CustomWeather, © 2015

Note: Actual official high and low records may vary slightly from our data, if they occured in-between our weather recording intervals... More about our weather records


Euskirchen weather history for previous 24 hours

Time TempWeatherWind HumidityBarometerVisibility
10:20 PM
Tue, Nov 24
37 °FLight rain. Partly cloudy.5 mph87%29.77 "HgN/A
9:20 PM37 °FLight rain. Partly cloudy.3 mph87%29.80 "HgN/A
8:20 PM37 °FLight rain. Passing clouds.3 mph87%29.83 "HgN/A
7:20 PM37 °FPartly cloudy.6 mph81%29.83 "HgN/A
6:20 PM37 °FLight rain. Passing clouds.3 mph87%29.86 "HgN/A
5:20 PM37 °FLight rain. Passing clouds.5 mph81%29.86 "HgN/A
5:00 PM37 °FLight snow. Passing clouds.7 mph75%29.89 "Hg6 mi
4:20 PM37 °FLight snow. Partly sunny.7 mph75%29.89 "HgN/A
3:20 PM37 °FLight snow. Partly sunny.5 mph75%29.95 "Hg6 mi
2:20 PM37 °FLight snow. Mostly cloudy.5 mph75%29.98 "HgN/A
2:00 PM39 °FLight rain. Mostly cloudy.6 mph65%29.98 "HgN/A
1:20 PM37 °FBroken clouds.5 mph70%30.01 "HgN/A
12:20 PM39 °FCloudy.7 mph65%30.04 "HgN/A
11:20 AM39 °FBroken clouds.7 mph61%30.07 "HgN/A
10:20 AM37 °FBroken clouds.3 mph70%30.09 "HgN/A
9:20 AM36 °FBroken clouds.3 mph75%30.12 "HgN/A
8:20 AM36 °FBroken clouds.5 mph70%30.12 "HgN/A
7:20 AM36 °FPartly cloudy.2 mph70%30.12 "HgN/A
6:20 AM34 °FPartly cloudy.1 mph81%30.15 "HgN/A
5:20 AM34 °FPartly cloudy.2 mph75%30.15 "HgN/A
4:20 AM34 °FPassing clouds.1 mph75%30.18 "HgN/A
3:20 AM34 °FPassing clouds.3 mph81%30.21 "HgN/A
2:20 AM34 °FPassing clouds.2 mph81%30.21 "HgN/A
1:20 AM34 °FPassing clouds.2 mph81%30.21 "HgN/A
12:20 AM36 °FPassing clouds.2 mph75%30.24 "HgN/A
Weather by CustomWeather, © 2015

See weather overviewHow to use our weather pages